#timestamp,LO_Frequency,Hit,StdDev 
1460314815.1,286046994.9,Y
1460314835.8,286046998.3,P
1460314855.7,286046997.1,N
1460314875.5,286046997.1,P
1460314895.3,286046998.0,N
1460314915.2,286046996.0,Y
1460314935.9,286046999.4,P
1460314955.7,286046999.9,N
1460314975.6,286047001.5,N
1460314995.4,286047001.1,N
1460315015.2,286046999.8,N
1460315035.1,286047000.0,N
1460315036.0,286047000.0,N
1460315055.8,286046998.8,N
1460315075.6,286046998.5,N
1460315095.4,286047000.8,N
1460315115.3,286046999.6,N
1460315135.1,286046997.8,N
1460315155.8,286046999.2,N
1460315175.7,286047001.0,N
1460315195.5,286046999.4,N
1460315215.3,286046993.7,Y
1460315235.2,286046997.5,P
1460315255.0,286046997.8,N
1460315255.9,286046997.8,N
1460315275.7,286046999.5,N
1460315295.6,286046999.2,N
1460315315.4,286046996.9,Y
1460315335.2,286047000.8,P
1460315355.1,286047002.6,N
1460315356.0,286047002.6,N
1460315375.8,286047002.5,N
1460315395.6,286047003.6,N
1460315415.5,286047002.1,N
1460315435.3,286047001.3,N
1460315455.1,286047003.1,N
1460315475.9,286047003.7,N
1460315495.7,286047001.3,N
1460315515.5,286047004.3,Y
1460315535.4,286047005.4,P
1460315555.2,286047005.5,P
1460315575.0,286047008.0,P
1460315575.9,286047008.0,Y
1460315595.8,286047005.3,P
1460315615.6,286047005.5,P
1460315635.4,286047005.1,P
1460315655.3,286047005.5,Y
1460315675.1,286047003.6,P
1460315695.8,286047001.7,N
1460315715.7,286047003.0,N
1460315735.5,286047003.2,N
1460315755.3,286047006.8,Y
1460315775.2,286047001.3,P
1460315795.9,286046999.7,N
1460315815.7,286047001.4,N
1460315835.6,286047003.2,N
1460315855.4,286047003.0,N
1460315875.2,286047004.0,Y
1460315895.1,286046998.5,P
1460315896.0,286046998.5,N
1460315915.8,286046998.6,N
1460315935.6,286047000.2,N
1460315955.5,286046996.6,N
1460315975.3,286046994.9,Y
1460315995.1,286046996.5,P
1460316015.9,286046998.1,N
1460316035.7,286046998.3,N
1460316055.5,286047000.5,N
1460316075.4,286047001.6,N
1460316095.2,286047002.2,N
1460316115.0,286046997.8,N
1460316115.9,286046997.8,N
1460316135.7,286046997.4,N
1460316155.6,286046993.5,Y
1460316175.4,286046994.0,P
1460316195.3,286046992.0,P
1460316215.1,286046992.0,N
1460316216.0,286046992.0,N
1460316235.8,286046990.4,Y
1460316255.7,286046998.6,P
1460316275.5,286046999.2,N
1460316295.3,286046998.5,N
1460316315.1,286047001.2,N
1460316335.9,286046998.3,N
1460316355.7,286047001.1,N
1460316375.5,286047001.9,N
1460316395.4,286047003.8,N
1460316415.2,286047003.6,N
1460316435.0,286047001.9,N
1460316435.9,286047001.9,N
1460316455.8,286047001.4,N
1460316475.6,286047005.2,N
1460316495.4,286047005.2,N
1460316515.3,286047004.8,N
1460316535.1,286047005.4,N
1460316536.0,286047005.4,N
1460316555.8,286047008.9,N
1460316575.7,286047005.0,N
1460316595.5,286047003.8,N
1460316615.3,286047005.7,N
1460316635.2,286047009.0,N
1460316655.9,286047007.3,N
1460316675.7,286047010.4,N
1460316695.5,286047007.8,N
1460316715.4,286047007.5,N
1460316735.2,286047005.3,N
1460316755.0,286047003.5,N
1460316755.9,286047003.5,N
1460316775.8,286047002.5,N
1460316795.6,286047002.1,N
1460316815.4,286047000.1,N
1460316835.3,286047002.2,N
1460316855.1,286047000.2,N
1460316875.8,286047000.3,N
1460316895.7,286047001.0,N
1460316915.5,286047001.0,N
1460316935.3,286047000.1,N
1460316955.2,286046999.9,N
1460316975.9,286047002.5,N
1460316995.7,286047000.6,N
1460317015.6,286047001.3,N
1460317035.4,286046999.9,N
1460317055.2,286047002.2,N
1460317075.0,286047002.1,N
1460317076.0,286047002.1,N
1460317095.8,286046999.8,N
1460317115.6,286047000.5,N
1460317135.4,286046999.2,N
1460317155.3,286046996.6,N
1460317175.1,286046997.6,N
1460317195.8,286046995.6,N
1460317215.7,286046995.3,N
1460317235.5,286046994.4,N
1460317255.3,286046991.7,N
1460317275.2,286046992.2,N
1460317295.9,286046994.5,N
1460317315.7,286046992.0,N
1460317335.6,286046990.2,N
1460317355.4,286046994.6,N
1460317375.2,286046997.0,N
1460317395.1,286046997.4,N
1460317396.0,286046997.4,N
1460317415.8,286046999.4,N
1460317435.6,286046999.6,N
1460317455.5,286046996.7,N
1460317475.3,286046997.5,N
1460317495.1,286046995.4,N
1460317515.8,286046997.8,N
1460317535.7,286046996.1,N
1460317555.5,286046994.6,N
1460317575